Regional Weather Roundup
Issued by NWS

Home | Current Version | Previous Version | Graphics & Text | Print | Product List | Glossary On
Versions: 1 2 3 4 5 6 7 8 9 10 11 12 13 14 15 16 17 18 19 20 21 22 23 24 25 26 27 28 29 30 31 32 33 34 35 36 37 38 39 40 41 42 43 44 45 46 47 48 49 50
000
ASUS43 KFSD 131210
RWRSD

WEATHER ROUNDUP FOR SOUTH DAKOTA
NATIONAL WEATHER SERVICE SIOUX FALLS SD
600 AM CST WED DEC 13 2017

NOTE: "FAIR" INDICATES FEW OR NO CLOUDS BELOW 12,000 FEET WITH NO
SIGNIFICANT WEATHER AND/OR OBSTRUCTIONS TO VISIBILITY.


SDZ001>005-009-010-012>017-131300-
NORTHWEST AND NORTH CENTRAL SOUTH DAKOTA

CITY           SKY/WX    TMP DP  RH WIND       PRES   REMARKS
BUFFALO          N/A     36  24  62 NW25G38   29.92R
FAITH            N/A     38  24  57 NW35G41   29.88R
MOBRIDGE       CLEAR     41  29  62 NW28G37   29.76R
$$

SDZ012>016-024>037-041>051-057-063-072>074-131300-
SOUTHWEST AND SOUTH CENTRAL SOUTH DAKOTA

CITY           SKY/WX    TMP DP  RH WIND       PRES   REMARKS
RAPID CTY ARPT CLEAR     44  16  32 NW38G51   29.94R
PIERRE         CLEAR     43  28  55 NW28G38   29.81R
CUSTER         CLEAR     36  11  35 NW14G30   29.97R
ELLSWORTH AFB  CLEAR     44  15  31 NW33G46   29.93
PHILIP         CLEAR     43  23  45 NW17G32   29.91R
PINE RIDGE     CLEAR     36  20  52 NW9       30.00R
SPEARFISH      FAIR      39  16  38 W23G29    30.05R
WINNER         FAIR      46  24  42 NW26G43   29.82R
$$

SDZ004>011-016>023-039-040-131300-
NORTHEAST SOUTH DAKOTA

CITY           SKY/WX    TMP DP  RH WIND       PRES   REMARKS
ABERDEEN       MOCLDY    38  32  79 NW26G36   29.68R
WATERTOWN      CLOUDY    35  34  96 NW24G36   29.56R WCI  23
BROOKINGS      MIX PCPN  37  34  89 NW29G38   29.54R
SISSETON         N/A     37  34  89 NW35G46   29.56R
$$

SDZ017-020-022-023-036>040-048>070-131300-
SOUTHEAST SOUTH DAKOTA

CITY           SKY/WX    TMP DP  RH WIND       PRES   REMARKS
SIOUX FALLS    LGT RAIN  45  32  60 NW39G55   29.56R
HURON          MOCLDY    42  33  70 NW25G38   29.66R
CHAMBERLAIN    MOCLDY    46  29  50 NW22G39   29.77R
MITCHELL       CLOUDY    47  32  56 NW41G55   29.67R
YANKTON        CLOUDY    48  29  47 NW32G47   29.64R
$$

ABBREVIATIONS USED IN REMARKS
   TC - TEMPERATURE IN CELSIUS
  WCI - WIND CHILL INDEX
   HX - HEAT INDEX
  VSB - VISIBILITY





USA.gov is the U.S. government's official web portal to all federal, state and local government web resources and services.